Miscellaneous Local Product
Issued by NWS North Platte, NE

Home | Current Version | Previous Version | Graphics & Text | Print | Product List | Glossary On
Versions: 1 2 3 4 5 6 7 8 9 10 11 12 13 14 15 16 17 18 19 20 21 22 23 24 25 26 27 28 29 30 31 32 33 34 35 36 37 38 39 40 41 42 43 44 45 46 47 48 49 50
000
AXUS43 KLBF 170110
MISLBF


WESTERN AND NORTH CENTRAL NEBRASKA HOURLY WEATHER ROUNDUP
NATIONAL WEATHER SERVICE NORTH PLATTE NE
800 PM CDT TUE SEP 16 2014

***STATIONS NOT REPORTING VARIABLES SUCH AS SKY/WEATHER OR
PRESSURE ARE PROVIDED BY THE NEBRASKA DEPARTMENT OF
ROADS...RAWS...AND APRS NETWORKS...AND ARE NOT UNDER
NATIONAL WEATHER SERVICE QUALITY CONTROL***

...OBSERVATIONS IN AND NEAR THE EASTERN PANHANDLE OF NEBRASKA...

CITY           SKY/WX    TMP DP  RH WIND       PRES   REMARKS
PINE RIDGE     CLEAR     67  54  63 E5        29.94F
CHADRON        CLEAR     72  52  49 SE6       29.92F
ALLIANCE       CLEAR     66  46  48 SE9       29.98S
SIDNEY         CLEAR     71  45  39 E8        30.04S
WHITECLAY        N/A     66  52  60 SE6         N/A
RUSHVILLE        N/A     70  39  32 SE13        N/A
LISCO            N/A     75  43  31 E5          N/A
$$

...OBSERVATIONS IN NORTH CENTRAL NEBRASKA...

CITY           SKY/WX    TMP DP  RH WIND       PRES   REMARKS
VALENTINE      PTCLDY    71  55  56 NE3       29.93F
THEDFORD       CLEAR     72  60  67 S9        29.97R
AINSWORTH      PTCLDY    65  57  76 SE5       29.95R
O`NEILL        CLEAR     63  57  81 S6        29.97S
ORD            PTCLDY    62  55  77 SE7       29.97F
BROKEN BOW     CLEAR     63  57  81 S7        29.98S
SPRINGVIEW       N/A     69  58  68 E6          N/A
ROSE             N/A     66  63  88 E9          N/A
NEWPORT          N/A     65  58  79 S5          N/A
COMSTOCK         N/A     64  60  87 S6          N/A
CHAMBERS         N/A     62  55  79 S3          N/A
$$

...OBSERVATIONS IN SOUTHWEST NEBRASKA AND FAR NORTHEAST COLORADO...

CITY           SKY/WX    TMP DP  RH WIND       PRES   REMARKS
WRAY           FAIR      71  49  44 NE8       30.00F
HOLYOKE        FAIR      72  54  53 E6        30.01S
IMPERIAL       CLEAR     73  54  51 NW7       29.98S
OGALLALA       CLEAR     72  61  67 CALM      29.98S
NORTH PLATTE   CLEAR     63  59  87 E7        29.96S
MCCOOK         CLEAR     71  60  68 E9        29.96R
LEXINGTON      PTCLDY    65  59  80 SE7       29.97F
SUTHERLAND       N/A     71  62  71 SE5         N/A
BRADY            N/A     67  58  73 CALM        N/A
GOTHENBURG       N/A     72  55  55 SE3         N/A
CALLAWAY         N/A     70  61  73 S7          N/A
$$

...SOME WEATHER OBSERVATIONS FROM AROUND THE REGION...

CITY           SKY/WX    TMP DP  RH WIND       PRES   REMARKS
DENVER         PTCLDY    79  34  19 NE3       30.10S
LARAMIE        CLEAR     66  33  29 W8        30.22S
CHEYENNE       CLEAR     76  30  18 NW6       30.14S
SCOTTSBLUFF    CLEAR     77  45  32 SE6       29.98S
RAPID CITY     CLEAR     71  48  43 CALM      29.95S
PIERRE         CLEAR     70  52  52 CALM      29.88S
WINNER         FAIR      74  54  49 CALM      29.90F
SIOUX FALLS    MOCLDY    64  50  60 S9        29.97F
OMAHA          MOCLDY    65  50  58 SE9       30.02F
GRAND ISLAND   CLOUDY    64  54  69 SE7       30.01F
KANSAS CITY    PTCLDY    65  52  62 E8        30.04S
WICHITA        PTCLDY    74  63  68 SE10      29.99F
HAYS           PTCLDY    73  63  68 SE10      29.95F
LIBERAL        CLEAR     79  59  50 S13       30.02S
GOODLAND       CLEAR     76  54  46 N3        30.01R
$$



USA.gov is the U.S. government's official web portal to all federal, state and local government web resources and services.